Retour au catalogue

STARLINK-33861

ActifCommunicationsVLEO
NORAD 63678·PAYLOAD·🇺🇸 United States

Lancé Apr 28, 2025 depuis Cape Canaveral Space Force Station

Loading…

Prochains Passages (prochaines 24 heures)

TLE

FraisSource: CelesTrak SupGP

Époque: Sep 15, 2026, 02:31 UTC

1 63678C 25085Q   26258.10534722 -.00020069  00000+0 -72676-3 0  2584
2 63678  43.0012  41.4140 0001669 270.3895 177.7373 15.27593655    16

Suivez STARLINK-33861 en temps réel avec AllMySat

Download on the App Store